Regional Weather Roundup
Issued by NWS

Home | Current Version | Previous Version | Graphics & Text | Print | Product List | Glossary On
Versions: 1 2 3 4 5 6 7 8 9 10 11 12 13 14 15 16 17 18 19 20 21 22 23 24 25 26 27 28 29 30 31 32 33 34 35 36 37 38 39 40 41 42 43 44 45 46 47 48 49 50
424
ASUS45 KSLC 232110
RWRUT

UTAH REGIONAL WEATHER ROUNDUP
NATIONAL WEATHER SERVICE SALT LAKE CITY UT
300 PM MDT SAT JUL 23 2016

UTZ001>011-023>025-232200-

NORTHERN UTAH

CITY           SKY/WX    TMP DP  RH WIND       PRES   REMARKS
BRIGHAM CITY     N/A     88  18   7 N5        30.10F
HILL AFB       SUNNY     88  26  10 NW10G17   30.14F
LOGAN          SUNNY     88  29  12 VRB5      30.11F
OGDEN          SUNNY     90  27  10 W8        30.11F
PROVO AIRPORT  SUNNY     90  48  24 NW6       30.10F
SALT LAKE CITY MOSUNNY   92  27   9 N12G17    30.08F
VERNAL         SUNNY     94  42  16 SW7       30.07F HX  90
WENDOVER       SUNNY     88  30  12 SE12      30.11F
HEBER CITY     SUNNY     91  28  10 S5G17     30.14F

$$

UTZ012>022-026-027-232200-

SOUTHERN/CENTRAL UTAH

CITY           SKY/WX    TMP DP  RH WIND       PRES   REMARKS
BLANDING       MOSUNNY   94  42  16 SW6       30.23F HX  90
BRYCE CANYON   SUNNY     88  29  12 SW10G21   30.31F
CEDAR CITY     SUNNY     96  33  11 NW10      30.12F HX  91
DELTA          SUNNY     91  23   8 N7        30.09F
MILFORD        SUNNY     97  28   8 NE8       30.08F HX  91
MOAB/CYNLANDS  SUNNY     99  39  12 VRB7      30.02F HX  94
PRICE          SUNNY     91  41  17 VRB5      30.15F
ST GEORGE      CLEAR    106  41  11 W14G22    29.92F HX 100

$$

REGIONAL REPORTS     COLORADO/ARIZONA

CITY           SKY/WX    TMP DP  RH WIND       PRES   REMARKS
CRAIG, CO      CLOUDY    92  33  12 SW14G32   30.16F
GRAND JUNCTION SUNNY     95  49  20 VRB3      30.06F HX  92
RIFLE          CLOUDY    95  41  15 W14       30.10F HX  91
MONTROSE       SUNNY     93  45  19 N7        30.15F
CORTEZ         SUNNY     94  41  16 W8G18     30.15F HX  90
PAGE, AZ       MOSUNNY  101  39  12 NW6       30.01F HX  96
GRAND CANYON   MOSUNNY   90  37  15 VRB6      30.27F
KINGMAN        SUNNY    103  40  11 SW17G28   30.00F HX  98
FLAGSTAFF      MOSUNNY   86  42  21 VRB7      30.29F

$$

REGIONAL REPORTS    NEVADA/IDAHO/WYOMING

CITY           SKY/WX    TMP DP  RH WIND       PRES   REMARKS
LAS VEGAS, NV  MOSUNNY  112  27   5 E15       29.79F HX 103
ELY            SUNNY     91  19   7 N13       30.18F
ELKO           SUNNY     89  10   5 MISG      30.15F
POCATELLO, ID  MOSUNNY   83  33  16 SW18G28   30.16F
BURLEY         SUNNY     79  36  21 W16G23    30.14F
EVANSTON, WY   SUNNY     83  13   7 SW10G29   30.28F
ROCK SPRINGS   SUNNY     86  17   8 W21       30.23F
KEMMERER         N/A    N/A N/A N/A W18G26    30.28S

$$




USA.gov is the U.S. government's official web portal to all federal, state and local government web resources and services.